Tracking 19636 objects as of 25-May-2019
HD Live streaming from Space Station
objects crossing your sky now

SHIJIAN-15 (SJ-15)

Track SHIJIAN-15 (SJ-15) now!
10-day predictions
SHIJIAN-15 (SJ-15) is classified as:


NORAD ID: 39210
Int'l Code: 2013-037C
Perigee: 669.9 km
Apogee: 681.5 km
Inclination: 98.0 °
Period: 98.1 minutes
Semi major axis: 7046 km
RCS: Unknown
Launch date: July 19, 2013
Source: People's Republic of China (PRC)
Launch site: Taiyaun Space Center, China (TSC)

SHIJIAN 15 is a technology satellite, precise mission unknown at present.
aabbcc
Your satellite tracking list
Your tracking list is empty




NASA's NSSDC Master Catalog

Two Line Element Set (TLE):
1 39210U 13037C   19144.56127173 -.00000049  00000-0 -17431-6 0  9997
2 39210  98.0028 148.8866 0008170  65.9984 294.2065 14.67656266315514
Source of the keplerian elements: AFSPC